This is the latest recevied weather packets stored in our database for station/object KH6DH-13. If no packets are shown the sender has not sent any weather packets the latest 10 day(s).
| Time | Temp. | Humidity | Pressure | Rain* | Wind** | Luminosity | Snow |
|---|---|---|---|---|---|---|---|
| 1777549514 | 22.78° C | - | - | 0 mm | 1.79 m/s, 69° | - | - |
| 1777548913 | 22.78° C | - | - | 0 mm | 1.34 m/s, 27° | - | - |
| 1777548312 | 22.78° C | - | - | 0 mm | 0.89 m/s, 63° | - | - |
| 1777547709 | 23.33° C | - | - | 0 mm | 0.45 m/s, 155° | - | - |
| 1777547108 | 22.78° C | - | - | 0 mm | 0.89 m/s, 356° | - | - |
| 1777546507 | 22.78° C | - | - | 0 mm | 0.89 m/s, 13° | - | - |
| 1777545903 | 22.78° C | - | - | 0 mm | 1.79 m/s, 83° | - | - |
| 1777545302 | 23.33° C | - | - | 0 mm | 0.89 m/s, 45° | - | - |
| 1777544701 | 22.78° C | - | - | 0 mm | 0 m/s | - | - |
| 1777544100 | 22.78° C | - | - | 0 mm | 0.45 m/s, 108° | - | - |
| 1777543499 | 22.78° C | - | - | 0 mm | 0 m/s | - | - |
| 1777542898 | 23.33° C | - | - | 0 mm | 0.89 m/s, 73° | - | - |
| 1777542297 | 23.33° C | - | - | 0 mm | 0.45 m/s, 55° | - | - |
| 1777541696 | 23.33° C | - | - | 0 mm | 0 m/s | - | - |
| 1777541095 | 23.33° C | - | - | 0 mm | 0 m/s | - | - |
| 1777540494 | 23.33° C | - | - | 0 mm | 0.45 m/s, 11° | - | - |
| 1777539893 | 23.33° C | - | - | 0 mm | 0.89 m/s, 73° | - | - |
| 1777539292 | 23.33° C | - | - | 0 mm | 0.89 m/s, 79° | - | - |
| 1777538691 | 23.89° C | - | - | 0 mm | 0.45 m/s, 295° | - | - |
| 1777538090 | 23.33° C | - | - | 0 mm | 0.45 m/s, 75° | - | - |
| 1777537489 | 23.33° C | - | - | 0 mm | 0.45 m/s, 311° | - | - |
| 1777536888 | 23.33° C | - | - | 0 mm | 1.79 m/s, 84° | - | - |
| 1777536287 | 23.33° C | - | - | 0 mm | 0.89 m/s, 138° | - | - |
| 1777535686 | 23.33° C | - | - | 0 mm | 0.89 m/s, 287° | - | - |
| 1777535085 | 23.89° C | - | - | 0 mm | 0.45 m/s, 55° | - | - |
* Rain latest hour (hover to see other rain measurements)
** Current wind speed in m/s (hover to see current wind gust speed)